User: anonymous   Login
Location: Unspecified
(35.6961°N, 0.0000°E)
Time: 23:12:05
(UTC+00:00)
Language:

XW-2B - Orbit

View from above orbital plane
View from above orbital plane
View from above satellite
View from above satellite

Ground track
Ground track

The orbit data is extracted from the following two-line orbital elements,

1 40911U 15049N   19170.78303241  .00000541  00000-0  31785-4 0  9998
2 40911  97.4663 173.1683 0013625 186.3720 169.4351 15.15786090207061
Epoch (UTC): 19 June 2019 18:47:34
Eccentricity: 0.0013625
inclination: 97.4663°
perigee height: 509 km
apogee height: 528 km
right ascension of ascending node: 173.1683°
argument of perigee: 186.3720°
revolutions per day: 15.15786090
mean anomaly at epoch: 169.4351°
orbit number at epoch: 20706

The dashed part of the orbit path shows where the satellite is in the earth's shadow,  

DLR